STARLINK-31210, 59033

Orbit data source: Space-Track

STARLINK-31210, 59033 is a payload satellite owned by SpaceX/Seattle (US) in LEO that was launched on Sun, 25 Feb 2024 UTC via an FALCON 9 launch vehicle from the Air Force Eastern Test Range (AFETR). Payload-class satellites include a variety of spacecraft equipped with specific instruments for various scientific and technological missions. These include communications satellites like Starlink; space stations such as the ISS; scientific satellites like the Hubble; Earth observation satellites from companies like Planet Labs, Umbra, and HawkEye 360; GPS; miniature CubeSats for education and research; and military/defense satellites.

Loading next visibility...
Identifier
59033, 2024-038L
Orbit
LEO
Country
Flag of USUS
Related business
Manufacturer
SpaceX/Seattle
Mission
Operational Commercial Communications
Bus & Motor
STARLINK V2M, Unknown motor
Mass
730 kg wet, ~700 kg dry
Launch date (UTC)
2024-02-25 (2 years ago)
Launch vehicle
FALCON 9
Launch site
Air Force Eastern Test Range (AFETR)
Object type
Payload
Rocket body
Debris
Shape & HBR
Box + 2 Pan, 17.7 m
Radar Cross Section
33.884 m², Large (>1 m²)

Expand to show TLE details & history
Last TLE update: 2 days ago

TLE from 2 days ago
0 STARLINK-31210
1 59033U 24038L   26171.06084435  .00001026  00000-0  46820-4 0  9997
2 59033  43.0021 165.5073 0001488 271.2987  88.7694 15.27579509130518
Epoch: 2026-06-20T01:27Z
TLE epoch observation values (Epoch: 2026-06-20T01:27:36.951Z)
Latitude
-0.00005°
Longitude
-124.6776°
Altitude
482.804 km
Speed
7.626 km/s
True Right ascension
11h 02m 01s
True Declination
0° 00' 00"
Sunlit
Object was in daylight at epoch
Visualization orbit readout
Latitude
Unknown
Longitude
Unknown
Altitude
Unknown
Speed
Unknown
Apparent Right ascension
Unknown
Apparent Declination
Unknown
Sunlit
N/A
Visualization observer readout
Local Sidereal Time
21:46:54
Azimuth
Unknown
Elevation
Unknown
Doppler factor
Unknown
Orbital elements
Apogee altitude
486.017 km
Perigee altitude
483.974 km
Semi-major axis
6,863.132 km
Eccentricity
0.00015
Inclination
43.0021°
RAAN
165.5073°
Arg. of periapsis
271.2987°
True anomaly
88.78645°
Mean anomaly
88.7694°
Eccentric anomaly
88.77792°
Mean motion
3.81733 °/min
Orbital period
94.31 mins
BSTAR
0.00004682
Loading maneuver chart data...
Computing Atmospheric mass density...
Loading historical data...
Loading historical data...
Loading historical data...
Loading historical data...
Loading historical data...
Loading historical data...
Loading historical data...

Documentation

Showing up to 5 results
|